Wind_Speed
38 40 43 44 46 47 49 51 53 54 52 53 55 56 56 56 55 57 58 62 64 61 59 57 54 55 57 58 57 55 57 53 46 40 41 42 46 37 32 34 33 36 38 19 20
43 45 47 48 47 50 53 57 59 61 62 62 64 65 66 64 62 62 63 61 65 66 64 65 60 58 59 60 61 60 61 53 49 45 39 42 52 47 41 35 32 32 32 23 14
46 50 50 49 51 54 60 62 64 70 73 76 74 70 67 66 63 55 56 60 65 68 70 71 69 64 60 61 63 64 63 54 51 49 45 47 56 58 48 42 43 39 32 31 26
51 51 50 52 56 63 65 68 79 75 60 49 39 35 33 30 28 24 23 28 37 52 62 75 76 70 65 63 64 66 62 57 54 52 49 48 55 61 59 48 42 44 33 39 33
52 51 51 56 61 64 68 79 60 37 27 23 16 7 5 11 16 18 22 22 24 27 32 49 70 74 69 66 65 66 63 61 59 57 50 50 52 58 65 49 62 42 39 38 41
55 51 53 59 62 67 77 50 27 19 17 13 10 6 6 14 17 20 22 24 25 27 30 32 34 63 72 70 67 66 67 64 60 59 56 48 54 56 63 63 59 46 40 43 48
54 52 55 61 65 76 50 21 15 15 15 16 15 14 13 14 18 23 27 30 31 33 33 37 36 38 67 73 72 67 68 67 62 58 56 53 58 55 50 61 65 53 49 48 45
54 54 59 61 68 70 25 16 15 16 20 22 24 24 22 19 20 23 26 28 29 33 34 38 34 30 45 70 73 71 70 70 63 58 56 58 53 54 47 59 63 50 54 54 53
55 56 61 61 71 55 17 16 19 21 26 31 31 23 23 22 19 20 24 28 32 35 36 41 43 38 34 59 73 75 71 68 65 60 56 58 55 60 52 59 61 62 59 53 44
56 58 61 63 72 47 17 20 24 27 32 34 31 27 24 19 22 27 31 33 36 42 44 44 45 44 40 47 72 73 68 68 65 61 56 59 55 64 56 59 54 56 59 55 49
57 60 62 64 71 37 20 23 29 31 39 38 31 22 17 23 26 28 27 37 36 35 34 37 39 41 39 39 64 72 71 69 65 61 59 60 60 70 62 63 62 57 50 46 44
58 61 62 64 67 31 22 29 35 37 32 26 14 18 26 24 31 23 21 22 19 22 26 30 33 36 40 41 58 72 73 70 66 61 60 62 64 75 67 68 64 56 49 44 39
60 63 61 64 64 33 27 33 35 36 27 24 25 28 26 29 27 19 19 16 13 15 18 22 29 39 42 44 57 71 74 69 65 57 59 62 64 75 72 71 63 56 48 41 40
62 63 62 66 59 33 30 38 38 35 27 27 29 27 25 29 23 17 15 16 13 17 18 19 25 39 44 45 54 71 70 66 60 58 60 67 67 67 76 72 65 54 43 42 37
62 63 64 63 58 32 33 38 38 32 28 31 25 25 27 26 17 18 16 14 16 18 17 18 19 33 48 43 56 68 62 61 54 62 62 71 66 61 73 71 58 51 43 40 36
60 62 63 61 59 40 32 38 40 30 33 29 29 29 26 18 21 16 16 16 19 20 14 16 13 19 45 48 57 59 56 57 62 65 65 68 64 65 65 52 50 48 44 40 40
59 60 60 57 60 45 31 39 42 33 28 32 30 30 30 20 18 10 14 18 17 18 18 14 16 21 29 49 61 64 60 65 68 62 59 61 60 57 53 52 49 48 43 42 38
56 60 61 56 60 50 31 38 39 32 32 33 34 38 32 21 18 14 10 16 17 17 12 11 19 20 32 55 67 65 65 68 69 65 61 56 63 56 47 51 50 49 46 38 32
54 59 61 56 58 57 40 38 37 31 34 38 34 37 30 22 19 19 10 5 6 10 15 9 18 19 34 65 67 56 67 63 67 59 55 57 56 51 45 46 49 45 35 33 35
54 59 61 59 57 56 40 38 31 26 33 37 35 35 29 22 22 10 8 5 9 9 10 18 22 24 45 60 58 54 68 59 62 61 54 51 54 46 43 45 43 43 39 41 39
54 58 60 60 56 49 43 36 33 26 28 35 34 32 35 18 25 15 14 11 4 5 10 19 25 25 50 48 54 56 49 59 59 56 56 53 50 42 37 41 40 38 39 41 41
54 58 60 60 54 53 43 36 32 27 28 31 33 32 34 30 23 15 13 10 13 1 15 33 18 33 41 34 57 58 54 57 57 55 53 49 41 44 42 42 40 37 38 39 40
54 56 59 57 53 50 47 33 34 25 27 26 35 29 28 27 18 15 14 17 16 2 10 2 27 38 50 39 55 55 57 56 51 46 37 36 45 45 46 44 41 39 37 38 38
54 56 57 55 54 50 48 43 29 28 23 28 32 25 26 26 27 23 15 14 11 5 14 12 26 44 31 49 55 63 61 54 52 43 43 50 47 39 41 40 40 39 37 36 31
56 57 56 52 50 48 47 46 28 27 26 25 28 26 25 21 18 19 18 13 2 6 5 9 45 47 38 47 52 59 59 54 50 47 50 50 42 40 39 38 36 34 31 24 27
59 56 54 52 48 47 45 44 40 28 27 22 23 22 26 21 15 10 10 7 2 4 6 25 41 39 31 50 48 50 57 53 52 51 47 46 44 38 36 34 34 34 35 31 22
57 54 51 50 47 44 43 43 44 36 25 23 24 23 21 23 14 4 3 4 3 2 4 18 44 35 30 47 42 52 51 50 54 46 43 40 40 40 38 34 34 34 30 26 28
Wind_Direction
335 330 324 319 315 315 313 310 306 301 291 283 275 267 266 261 260 258 251 246 246 244 240 239 238 233 229 231 230 226 227 224 220 216 213 202 193 194 211 209 219 227 217 191 204
335 329 326 324 324 323 317 311 303 296 291 286 281 277 273 266 261 261 256 250 243 243 242 240 235 232 230 227 227 228 229 223 219 217 210 201 193 200 207 197 203 226 233 215 188
338 335 333 332 327 321 316 312 307 300 293 288 283 278 272 266 266 261 257 254 249 243 240 239 238 233 229 226 227 226 227 222 218 217 212 199 198 204 207 202 208 212 231 223 203
341 340 338 333 325 322 319 315 312 306 300 295 291 283 275 265 240 234 237 241 240 237 235 240 236 233 227 227 225 225 223 219 214 216 215 202 206 206 212 202 207 215 215 224 203
347 342 337 331 328 325 322 322 316 324 323 323 321 318 270 245 253 235 244 245 249 244 241 236 232 231 227 225 224 222 221 220 213 212 213 205 207 209 213 215 213 209 211 221 227
347 342 337 333 333 330 332 329 345 10 17 14 11 355 285 268 264 258 251 258 259 252 249 241 239 229 223 221 221 220 218 217 216 211 211 206 203 211 212 213 226 221 224 224 230
349 342 337 339 337 338 337 354 11 5 359 351 345 332 304 283 271 265 265 265 260 251 249 244 244 234 223 220 217 218 217 216 212 210 211 204 199 210 199 214 220 227 226 228 233
348 342 341 342 343 345 345 353 356 347 341 337 329 319 307 296 282 269 263 256 256 250 244 237 239 241 225 215 216 214 216 214 209 210 206 208 197 199 197 212 217 225 231 239 245
347 345 343 345 347 348 343 346 348 340 332 336 329 316 311 301 292 279 276 270 264 254 248 240 235 241 230 214 213 213 214 211 209 206 203 207 196 192 198 212 213 221 226 231 235
348 345 346 347 350 349 334 336 338 336 327 325 320 308 302 294 298 294 285 273 261 256 251 245 238 238 232 219 209 210 211 212 209 206 206 205 191 190 197 213 213 220 223 232 242
349 348 349 350 352 346 341 344 339 329 320 313 310 305 296 296 304 303 289 282 277 263 247 240 235 233 231 228 207 206 207 209 207 208 205 205 190 192 198 208 218 223 229 235 241
350 349 351 353 354 348 341 348 338 329 335 336 333 318 317 309 315 298 292 290 262 246 236 228 225 220 221 222 207 203 205 204 203 205 204 203 191 193 198 209 219 228 229 232 237
351 351 354 356 356 359 358 349 343 350 355 356 338 329 321 312 311 302 298 273 260 229 243 238 227 222 216 215 206 201 200 201 201 203 203 204 196 196 196 207 219 226 229 230 231
351 351 355 358 358 359 354 354 354 353 356 354 348 344 331 319 310 298 295 277 257 250 281 253 233 222 212 210 203 200 195 199 196 195 198 200 203 194 198 206 216 222 221 228 233
353 353 357 360 1 359 356 0 359 353 355 353 347 344 337 306 293 286 294 284 261 267 268 239 251 222 213 206 200 190 193 196 193 193 190 197 204 191 198 206 211 217 219 226 231
356 357 0 359 2 1 352 3 357 353 2 0 349 347 343 318 308 279 280 275 264 270 266 238 222 210 197 199 191 181 188 190 183 185 191 196 205 203 197 202 209 215 216 223 231
357 359 359 356 1 359 349 3 349 2 2 2 357 356 348 334 340 308 280 282 265 274 246 237 217 175 196 188 180 176 180 175 177 180 188 192 205 207 195 202 209 217 217 220 227
358 359 360 358 3 2 353 358 352 1 3 4 3 359 3 345 342 336 295 273 264 265 207 207 195 195 183 178 175 177 179 174 180 180 187 192 200 201 200 203 208 213 215 219 226
359 358 1 1 4 4 2 349 0 4 9 0 360 6 4 351 347 334 326 313 261 242 209 186 182 183 182 168 177 174 179 175 179 188 187 195 195 194 197 196 204 212 214 215 219
359 359 359 3 5 7 357 354 360 8 4 4 5 9 10 357 350 7 2 3 105 132 176 171 168 181 179 175 178 172 172 174 172 178 179 190 195 186 188 195 200 206 205 208 213
359 358 358 2 6 2 357 354 9 8 354 356 5 11 16 4 17 42 57 69 159 154 180 166 171 181 182 176 173 169 162 173 175 175 183 190 194 186 187 193 199 203 203 206 211
358 358 357 1 2 5 357 353 8 5 360 2 8 7 7 29 41 73 53 39 30 58 174 147 193 181 175 174 171 163 152 166 171 174 185 195 172 178 183 187 186 200 205 207 213
357 356 355 358 358 4 3 359 356 357 3 7 6 6 3 19 54 62 24 17 13 56 205 91 160 183 183 173 168 151 154 160 161 171 185 183 169 176 183 188 192 203 205 209 214
354 355 352 355 357 1 5 5 357 356 356 2 6 8 15 351 25 22 27 18 15 324 142 139 181 174 175 168 161 147 155 153 156 154 166 166 180 183 190 192 196 200 205 208 213
355 352 351 352 356 358 2 4 355 357 3 359 4 5 18 16 13 3 13 16 24 173 167 149 172 166 163 179 162 154 156 153 155 157 166 173 182 187 189 194 200 202 196 189 202
353 351 350 350 355 356 360 0 6 346 3 3 5 1 18 18 15 35 29 12 261 288 343 160 181 168 155 191 167 154 157 156 157 160 170 177 181 188 192 197 199 203 203 196 194
350 350 348 348 350 354 357 358 1 0 351 356 2 360 352 11 14 293 225 344 307 221 111 177 177 182 169 181 164 156 161 165 163 165 173 181 185 190 194 200 207 210 213 209 212
Height
5824 5817 5810 5802 5795 5787 5779 5771 5764 5758 5753 5748 5743 5740 5738 5738 5737 5737 5738 5742 5744 5747 5756 5759 5765 5769 5775 5780 5787 5793 5798 5810 5821 5831 5841 5849 5855 5859 5850 5849 5854 5857 5867 5872 5879
5816 5807 5799 5791 5782 5774 5766 5758 5749 5741 5733 5725 5719 5715 5714 5714 5714 5714 5717 5721 5726 5731 5738 5743 5748 5753 5761 5768 5773 5781 5791 5804 5815 5821 5832 5838 5846 5847 5836 5841 5847 5852 5858 5869 5877
5807 5798 5788 5779 5771 5762 5753 5741 5730 5717 5705 5696 5689 5685 5685 5687 5687 5689 5693 5699 5707 5713 5718 5725 5730 5739 5748 5756 5763 5770 5781 5796 5805 5811 5821 5829 5835 5832 5827 5836 5841 5847 5856 5865 5875
5798 5788 5779 5770 5760 5748 5735 5721 5704 5686 5672 5665 5662 5662 5664 5666 5672 5676 5680 5683 5686 5690 5697 5704 5712 5723 5735 5743 5750 5758 5772 5783 5793 5800 5809 5821 5823 5825 5825 5833 5834 5840 5848 5856 5867
5789 5780 5771 5760 5748 5735 5719 5700 5679 5668 5662 5659 5657 5658 5660 5662 5666 5671 5673 5675 5676 5679 5682 5685 5692 5704 5718 5727 5736 5747 5759 5769 5780 5788 5800 5808 5813 5817 5823 5828 5830 5836 5841 5849 5859
5782 5772 5762 5750 5736 5721 5702 5682 5673 5667 5663 5660 5659 5660 5660 5662 5663 5664 5666 5667 5669 5671 5674 5677 5677 5683 5697 5712 5723 5736 5744 5755 5770 5780 5786 5800 5805 5808 5821 5820 5825 5835 5839 5845 5851
5774 5764 5753 5739 5725 5708 5688 5679 5674 5669 5665 5662 5661 5660 5658 5659 5658 5659 5659 5659 5660 5662 5664 5666 5669 5672 5683 5699 5711 5721 5732 5742 5757 5773 5782 5784 5795 5810 5813 5817 5825 5830 5836 5841 5847
5766 5756 5744 5730 5715 5697 5683 5678 5673 5668 5664 5661 5658 5655 5653 5653 5651 5650 5649 5649 5650 5651 5653 5656 5658 5664 5669 5683 5697 5708 5717 5731 5750 5764 5769 5776 5794 5806 5804 5812 5821 5825 5832 5838 5842
5760 5748 5735 5722 5706 5690 5682 5676 5672 5667 5662 5657 5652 5648 5645 5643 5642 5642 5641 5640 5640 5641 5642 5643 5648 5653 5660 5667 5680 5691 5707 5725 5738 5754 5759 5770 5789 5800 5799 5806 5815 5821 5827 5832 5836
5754 5742 5728 5715 5700 5685 5679 5675 5669 5663 5656 5652 5647 5643 5639 5637 5635 5633 5631 5629 5629 5628 5630 5631 5637 5643 5649 5653 5665 5687 5704 5716 5732 5746 5756 5765 5782 5791 5793 5800 5807 5814 5821 5828 5834
5749 5736 5722 5710 5696 5682 5677 5672 5668 5662 5650 5643 5638 5633 5631 5630 5628 5625 5620 5615 5612 5613 5615 5619 5626 5637 5642 5649 5663 5674 5689 5703 5724 5735 5747 5758 5771 5782 5787 5793 5798 5808 5816 5822 5826
5743 5731 5718 5705 5692 5680 5674 5668 5662 5654 5643 5634 5630 5629 5626 5622 5618 5616 5612 5607 5604 5605 5607 5612 5619 5626 5630 5636 5645 5657 5674 5691 5709 5722 5736 5746 5761 5771 5778 5788 5793 5801 5811 5818 5823
5739 5726 5714 5701 5688 5676 5671 5666 5657 5647 5640 5633 5630 5625 5620 5616 5611 5609 5606 5602 5600 5600 5601 5604 5608 5609 5618 5624 5632 5645 5661 5682 5704 5717 5730 5738 5748 5759 5772 5782 5789 5796 5804 5812 5820
5736 5723 5710 5696 5683 5673 5669 5661 5650 5643 5638 5633 5625 5619 5613 5607 5605 5602 5600 5599 5597 5595 5594 5594 5594 5599 5607 5614 5624 5638 5661 5675 5694 5704 5715 5726 5736 5752 5765 5775 5783 5790 5801 5805 5813
5733 5719 5707 5694 5681 5672 5666 5657 5648 5641 5636 5630 5622 5616 5608 5603 5599 5597 5594 5591 5589 5587 5587 5586 5584 5586 5598 5612 5618 5643 5657 5674 5688 5696 5708 5717 5731 5750 5758 5766 5777 5787 5797 5801 5809
5731 5717 5705 5693 5681 5671 5664 5655 5648 5641 5631 5626 5617 5612 5603 5597 5594 5591 5588 5585 5583 5581 5581 5579 5580 5581 5593 5601 5620 5639 5648 5661 5674 5685 5692 5710 5723 5734 5751 5769 5776 5782 5792 5798 5802
5730 5719 5706 5696 5683 5669 5661 5653 5648 5636 5632 5624 5615 5606 5598 5592 5587 5584 5582 5580 5579 5577 5576 5577 5578 5582 5586 5597 5612 5627 5640 5651 5665 5669 5684 5707 5720 5737 5756 5763 5772 5777 5786 5792 5798
5729 5718 5705 5693 5680 5667 5660 5652 5644 5635 5626 5621 5614 5603 5595 5590 5585 5580 5578 5576 5573 5572 5573 5575 5578 5582 5586 5593 5607 5624 5634 5641 5652 5665 5686 5702 5712 5729 5751 5759 5765 5772 5780 5791 5797
5730 5717 5705 5692 5679 5667 5657 5651 5640 5634 5626 5619 5613 5603 5595 5589 5583 5577 5573 5572 5570 5570 5573 5575 5579 5584 5588 5598 5610 5623 5633 5648 5659 5681 5689 5700 5717 5724 5734 5745 5756 5766 5778 5785 5791
5729 5716 5705 5690 5678 5665 5657 5650 5641 5633 5627 5619 5611 5602 5595 5589 5583 5577 5574 5573 5571 5571 5573 5575 5580 5584 5589 5595 5612 5626 5633 5645 5658 5669 5685 5696 5706 5720 5731 5743 5753 5761 5770 5779 5785
5726 5714 5702 5689 5676 5667 5658 5650 5640 5634 5629 5621 5613 5605 5596 5589 5584 5580 5577 5575 5574 5575 5576 5577 5580 5586 5592 5603 5611 5623 5634 5649 5661 5675 5683 5693 5708 5723 5733 5741 5749 5757 5765 5775 5780
5725 5713 5701 5689 5680 5669 5658 5649 5642 5637 5630 5623 5615 5607 5601 5593 5588 5584 5581 5582 5579 5577 5579 5581 5584 5587 5595 5601 5617 5626 5632 5646 5663 5675 5684 5695 5709 5716 5729 5737 5746 5752 5763 5769 5775
5725 5713 5701 5691 5682 5672 5662 5650 5643 5639 5632 5625 5618 5611 5605 5598 5596 5592 5588 5587 5585 5584 5583 5585 5587 5589 5595 5603 5615 5626 5639 5651 5661 5676 5685 5694 5707 5715 5724 5732 5741 5751 5760 5766 5771
5725 5715 5702 5690 5680 5671 5664 5653 5647 5639 5634 5627 5622 5615 5610 5603 5599 5596 5592 5591 5588 5587 5589 5590 5590 5598 5602 5613 5621 5627 5643 5653 5662 5673 5684 5695 5703 5713 5721 5729 5738 5747 5756 5763 5769
5722 5711 5701 5693 5684 5673 5662 5653 5647 5641 5634 5630 5626 5618 5613 5610 5605 5601 5597 5595 5594 5592 5593 5592 5594 5601 5609 5618 5624 5632 5645 5655 5666 5676 5686 5694 5705 5711 5720 5728 5736 5744 5752 5759 5764
5723 5712 5700 5690 5683 5674 5664 5656 5648 5639 5635 5632 5627 5621 5617 5612 5610 5606 5603 5601 5599 5598 5597 5598 5603 5607 5615 5621 5629 5638 5650 5659 5668 5675 5683 5693 5701 5711 5716 5724 5733 5740 5748 5756 5762
5721 5710 5698 5691 5681 5674 5665 5656 5647 5640 5636 5629 5627 5624 5620 5616 5612 5609 5605 5604 5603 5603 5605 5605 5608 5615 5620 5628 5636 5643 5653 5661 5671 5677 5686 5694 5702 5709 5716 5723 5730 5736 5744 5753 5758